Location: Buch
(50.1863°N, 11.0141°E)
Time: 09:43:54
(UTC+00:00)

Cosmos 1959 Rocket - Pass Details

Date: 18 January 2020
Orbit: 947 x 997 km, 83.0° (Epoch: 19 February)

Event Time Altitude Azimuth Distance (km) Brightness Sun altitude
Rises 05:43:14 0° 348° (NNW) 3,631 7.2 -13.1°
Reaches altitude 10° 05:45:44 10° 347° (NNW) 2,681 6.5 -12.7°
Maximum altitude 05:51:49 71° 265° (W) 1,006 4.4 -11.8°
Drops below altitude 10° 05:57:53 10° 183° (S) 2,675 7.0 -10.8°
Sets 06:00:22 0° 181° (S) 3,621 7.7 -10.5°
